Overview Statistics Trail Chart Weather Telemetry Raw packets
 

This is the latest recevied weather packets stored in our database for station/object KD2FKI. If no packets are shown the sender has not sent any weather packets the latest 10 day(s).

<< 1 2 3 4 5 6 7 >>
Time Temp. Humidity Pressure Rain* Wind** Luminosity Snow
1788378920 24.44° C 83% - 0 mm - - -
1788378338 24.44° C 82% - 0 mm - - -
1788377733 24.44° C 82% - 0 mm - - -
1788377131 25° C 80% - 0 mm - - -
1788376529 25.56° C 78% - 0 mm - - -
1788375928 25.56° C 79% - 0 mm - - -
1788375329 25.56° C 78% - 0 mm - - -
1788374722 26.11° C 78% - 0 mm - - -
1788374120 26.67° C 76% - 0 mm - - -
1788373536 27.22° C 73% - 0 mm - - -
1788372938 27.78° C 71% - 0 mm - - -
1788372331 28.33° C 67% - 0 mm - - -
1788371729 30° C 60% - 0 mm - - -
1788371126 33.33° C 53% - 0 mm - - -
1788370525 36.67° C 50% - 0 mm - - -
1788369922 37.22° C 47% - 0 mm - - -
1788369328 36.67° C 52% - 0 mm - - -
1788368735 36.11° C 52% - 0 mm - - -
1788368133 37.22° C 48% - 0 mm - - -
1788367532 36.11° C 52% - 0 mm - - -
1788366929 37.22° C 49% - 0 mm - - -
1788366327 36.67° C 51% - 0 mm - - -
1788365724 36.11° C 51% - 0 mm - - -
1788365122 35.56° C 52% - 0 mm - - -
1788364523 35.56° C 53% - 0 mm - - -

* Rain latest hour (hover to see other rain measurements)
** Current wind speed in m/s (hover to see current wind gust speed)